Flag for Iceland Weather past 2 weeks in Reykjavik, Iceland

Now
55 °F

More clouds than sun.


Feels Like: 52 °F
Forecast: 51 / 55 °F
Wind: 12 mph from South

Location: Reykjavik Airport

Current Time: Jul 25, 2014 at 11:58:52 AM

Latest Report: Jul 25, 2014 at 11:00 AM


Visibility: N/A

Pressure: 30.01 "Hg

Humidity: 82%

Dew point: 50 °F

Location of ReykjavikLocation

Historic Weather in Reykjavik — Graph

°F

Reykjavik temperature yesterday

Maximum temperature yesterday: 59 °F (at 2:00 PM)
Minimum temperature yesterday: 55 °F (at 12:00 AM)
Average temperature yesterday: 57 °F

Past Weeks' High & Low Weather Summary

 TemperatureHumidityPressure
High63 °F (Jul 22, 2:00 PM)94% (Jul 11, 1:00 PM)30.04 "Hg (Jul 11, 1:00 PM)
Low48 °F (Jul 15, 1:00 AM)56% (Jul 22, 3:00 PM)29.42 "Hg (Jul 11, 4:00 PM)
Average55 °F80%29.74 "Hg
* Reported Jul 10 10:00 AM — Jul 25 10:00 AM, Reykjavik, Weather by CustomWeather, © 2014

Note: Actual official high and low records may vary slightly from our data, if they occured in-between our weather recording intervals... More about our weather records

Advertising

Reykjavik weather history for previous 24 hours

 ConditionsComfort  
Time TempWeatherWind HumidityBarometerVisibility
10:00 AM
Jul 25
55 °FScattered showers. Broken clouds.12 mph88%30.01 "HgN/A
9:00 AM54 °FScattered showers. Broken clouds.13 mph88%29.98 "HgN/A
8:00 AM54 °FRain. Mostly cloudy.10 mph88%29.98 "HgN/A
7:00 AM54 °FPartly sunny.8 mph88%29.98 "HgN/A
6:00 AM54 °FLight rain. Broken clouds.9 mph82%29.98 "HgN/A
5:00 AM54 °FLight rain. Cloudy.5 mph82%29.98 "HgN/A
4:00 AM54 °FRain. Passing clouds.9 mph77%29.98 "HgN/A
3:00 AM52 °FPassing clouds.8 mph82%30.01 "HgN/A
2:00 AM52 °FPassing clouds.5 mph82%30.01 "HgN/A
1:00 AM54 °FPassing clouds.7 mph82%30.01 "HgN/A
12:00 AM55 °FPartly cloudy.6 mph77%30.01 "HgN/A
11:00 PM
Jul 24
55 °FPassing clouds.6 mph77%29.98 "HgN/A
10:00 PM55 °FPartly sunny.9 mph77%29.98 "HgN/A
9:00 PM57 °FBroken clouds.6 mph72%29.98 "HgN/A
8:00 PM57 °FBroken clouds.10 mph77%29.98 "HgN/A
7:00 PM57 °FBroken clouds.12 mph77%29.98 "HgN/A
6:00 PM57 °FScattered showers. Broken clouds.15 mph77%29.98 "HgN/A
5:00 PM57 °FBroken clouds.14 mph72%29.98 "HgN/A
4:00 PM59 °FBroken clouds.10 mph68%29.98 "HgN/A
3:00 PM59 °FBroken clouds.13 mph68%29.98 "HgN/A
2:00 PM59 °FPartly sunny.12 mph72%29.98 "HgN/A
1:00 PM57 °FPartly sunny.15 mph88%29.95 "HgN/A
12:00 PM57 °FScattered showers. Broken clouds.14 mph82%29.95 "HgN/A
11:00 AM57 °FMixture of precip. Cloudy.14 mph77%29.95 "HgN/A
Weather by CustomWeather, © 2014

See weather overviewHow to use our weather pages